Location: Newark
(47.5989°N, 4.6950°E)
Time: 02:44:23
(UTC+00:00)

ISS - Pass Details

Date: 25 November 2019
Orbit: 411 x 421 km, 51.6° (Epoch: 15 December)

Event Time Altitude Azimuth Distance (km) Brightness Sun altitude
Rises 16:34:20 0° 209° (SSW) 2,342 1.0 -6.6°
Reaches altitude 10° 16:36:41 10° 194° (SSW) 1,486 -0.4 -7.0°
Maximum altitude 16:39:21 23° 140° (SE) 947 -2.1 -7.4°
Drops below altitude 10° 16:42:04 10° 86° (E) 1,499 -1.6 -7.8°
Enters shadow 16:42:11 - 85° (E) 1,539 -1.5 -7.8°
